Regional Weather Roundup
Issued by NWS Green Bay, WI

Home | Current Version | Previous Version | Text Only | Print | Product List | Glossary On
Versions: 1 2 3 4 5 6 7 8 9 10 11 12 13 14 15 16 17 18 19 20 21 22 23 24 25 26 27 28 29 30 31 32 33 34 35 36 37 38 39 40 41 42 43 44 45 46 47 48 49 50
000
ASUS43 KGRB 040601
RWRGRB

NORTH-CENTRAL AND NORTHEAST WISCONSIN REGIONAL WEATHER ROUNDUP
NATIONAL WEATHER SERVICE GREEN BAY WI
100 AM CDT FRI SEP 04 2015

WIZ005-009-010>012-018-019-040700-
NORTH CENTRAL WISCONSIN

CITY           SKY/WX    TMP DP  RH WIND       PRES   REMARKS
IRONWOOD       CLEAR     61  59  94 CALM      30.01R
MANITOWISH WTR NOT AVBL
ARBOR VITAE    NOT AVBL
EAGLE RIVER    NOT AVBL
LAND O LAKES   NOT AVBL
RHINELANDER    CLEAR     62  61  96 CALM      30.07R FOG
PHILLIPS       CLEAR     61  61 100 CALM      30.03R
ANTIGO         NOT AVBL
TOMAHAWK       NOT AVBL
MERRILL        FOG       56  56 100 NE3       30.05R VSB 1/2
$$

WIZ013-073-040700-
NORTHEAST WISCONSIN

CITY           SKY/WX    TMP DP  RH WIND       PRES   REMARKS
IRON MOUNTAIN  CLEAR     62  59  90 NW3       30.03R
MARINETTE      CLEAR     64  59  82 N7        30.00R
$$

WIZ017-030-035>037-045-040700-
CENTRAL WISCONSIN

CITY           SKY/WX    TMP DP  RH WIND       PRES   REMARKS
MEDFORD        NOT AVBL
WAUSAU         CLEAR     65  62  90 E5        30.01R
MOSINEE        NOT AVBL
MARSHFIELD     PTCLDY    65  61  87 E6        30.00S
WISC RAPIDS    MOCLDY    66  62  87 E5        30.01R
STEVENS POINT  NOT AVBL
WAUPACA        NOT AVBL
SHAWANO        NOT AVBL
CLINTONVILLE   FOG       61  61 100 CALM      30.01R VSB 3/4
WAUTOMA        NOT AVBL
$$

WIZ038-039-048-051-040700-
FOX VALLEY

CITY           SKY/WX    TMP DP  RH WIND       PRES   REMARKS
NWS GREEN BAY  CLEAR     64  62  93 N8        29.99R
APPLETON       NOT AVBL
OSHKOSH        CLEAR     63  62  97 NW3       29.98R
FOND DU LAC    CLEAR     62  61  96 CALM      29.98R
$$

WIZ022-050-052-040700-
EAST CENTRAL WISCONSIN

CITY           SKY/WX    TMP DP  RH WIND       PRES   REMARKS
EPHRAIM        MOCLDY    65  64  96 N3        29.98S
STURGEON BAY   MOCLDY    64  61  88 N3        30.01R
MANITOWOC      NOT AVBL
SHEBOYGAN      FOG       60  60 100 CALM      29.97R VSB 1
$$

LMZ563-521-522-541>543-040700-
LAKESHORE

STATION/POSITION TIME  TEMP    WIND        PRES    VSBY  WAVE
                       AIR SEA DIR/SP/G                  HT/PER
                 (UTC) (F)     (DEG/KT/KT) (MB)    (MI)  (FT/S)
SHEBOYGAN LKSHOR 0500   66     330/  6/  6 1014.5R
KEWAUNEE LKSHORE 0500   67      10/  8/ 12 1013.7R
ALGOMA MARINA    0514           10/  9/ 14   N/A
NORTHPORT PIER   0500   68      10/  4/  6 1015.2R
N MID LAKE BUOY  0450   68 66   60/ 10/ 12 1014.5R         1/ 4
S GREEN BAY BUOY 0500   67 66   20/ 10/ 14 1016.4R
SISTER BAY LKSHO 0511   68      10/  4/  8   N/A
CHAMBERS ISLAND  0500   65      20/  9/ 11 1015.2R
MENOMINEE LKSHOR 0500   66      10/ 10/ 11 1014.3R
$$


USA.gov is the U.S. government's official web portal to all federal, state and local government web resources and services.